Showing default

OPS 7034 (TRANSIT 18), 3133

Orbit data source: Space-Track

OPS 7034 (TRANSIT 18), 3133 is a payload satellite owned by USN NAVAIR (US) in LEO that was launched on Sat, 02 Mar 1968 UTC via an SCOUT A launch vehicle from the Air Force Western Test Range (AFWTR). Payload-class satellites include a variety of spacecraft equipped with specific instruments for various scientific and technological missions. These include communications satellites like Starlink; space stations such as the ISS; scientific satellites like the Hubble; Earth observation satellites from companies like Planet Labs, Umbra, and HawkEye 360; GPS; miniature CubeSats for education and research; and military/defense satellites.

Loading next visibility...
Identifier
3133, 1968-012A
Orbit
LEO
Last TLE update
13 hours ago
Origin
Manufacturer
RCA/East Windsor
Mission
Defense Navigation
Bus & Motor
TRANSIT 5, Unknown motor
Mass
60 kg wet, 60 kg dry
Launch date (UTC)
1968-03-02 (57 years ago)
Launch vehicle
SCOUT A
Launch site
Air Force Western Test Range (AFWTR)
Object type
Payload
Rocket body
Debris
Shape & HBR
Oct Cyl + 4 Pan + 1 Rod, Unknown HBR
Radar Cross Section
7.565 m², Large (>1 m²)

Expand to show TLE details & history

TLE from 13 hours ago
0 OPS 7034 (TRANSIT 18)
1 03133U 68012A   25199.44371281  .00000084  00000-0  11401-3 0  9995
2 03133  90.0261 273.2993 0072284 236.2410 134.7102 13.51524818549291
Epoch: 2025-07-18T10:38Z
TLE epoch observation values (Epoch: 2025-07-18T10:38:56.786Z)
Latitude
11.48953°
Longitude
177.06232°
Altitude
1,106.916 km
Speed
7.281 km/s
True Right ascension
18h 13m 10s
True Declination
11° 25' 33"
Sunlit
Object was in full shadow at epoch
Visualization orbit readout
Latitude
71.48091°
Longitude
176.99148°
Altitude
1,130.599 km
Speed
7.268 km/s
Apparent Right ascension
22h 27m 07s
Apparent Declination
28° 57' 15"
Sunlit
Object is in daylight
Visualization observer readout
Local Sidereal Time
12:10:47
Azimuth
23.576° NE
Elevation
-17.037°
Doppler factor
1
Orbital elements
Apogee altitude
1,117.494 km
Perigee altitude
1,009.908 km
Semi-major axis
7,441.838 km
Eccentricity
0.00723
Inclination
90.0261°
RAAN
273.2993°
Arg. of periapsis
236.241°
True anomaly
135.29513°
Mean anomaly
134.7102°
Eccentric anomaly
135.00304°
Mean motion
3.38083 °/min
Orbital period
106.48 mins
BSTAR
0.00011401
Loading maneuver chart data...
Loading SW <> Apogee altitude chart data...
Loading historical data...
Loading historical data...
Loading historical data...
Loading historical data...
Loading historical data...
Loading historical data...
Loading historical data...
|